Νεφελώδης
Σχεδόν αίθριος με λίγα χαμηλά νέφη
Νεφελώδης
Νεφελώδης
Νεφελώδης
Σχεδόν αίθριος με λίγα χαμηλά νέφη
Αίθριος ουρανός
(°C)
25°
25°
25°
25°
26°
26°
27°
27°
28°
28°
30°
30°
32°
32°
(°C)
24°
25°
26°
27°
28°
30°
33°
ΒΔ
ΒΒΔ
ΔΒΔ
ΒΔ
ΔΒΔ
ΒΔ
ΔΒΔ
(km/h)
9-22
7-17
6-16
5-13
6-20
7-28
9-22
(χιλιοστά)
0
0
0
0
0
0
0
(%)
0
0
0
0
0
0
0

Ανύψωση ήλιου

/ -9.6°
sun-icon
UV 8
05:46
18:52
Αύξων αμφίκυρτος (φάση σελήνης) (163°)
17:31
04:48

METAR για Νέο Δελχί (VIDP)

Χρόνος Συνθήκες Θερμοκρασία/
Σημείο δρόσου
Άνεμος Ορατότητα Καιρός Νέφη Πίεση Αλλαγή Ανεπεξέργαστο
IFR 25°C / 13°C 330º 7kt 3000m Haze Few Clouds 3500ft
Few Clouds 4000ft
Broken Clouds 10000ft
1008 No Significant change VIDP 212300Z 33007KT 3000 HZ FEW035 FEW040CB BKN100 25/13 Q1008 NOSIG
IFR 25°C / 13°C 310º 8kt 3000m Thunderstorm Few Clouds 3500ft
Few Clouds 4000ft
Scattered Clouds 10000ft
1008 No Significant change VIDP 212230Z 31008KT 3000 TS FEW035 FEW040CB SCT100 25/13 Q1008 NOSIG
IFR 25°C / 13°C 310º 10kt Gust 20kt 3000m Thunderstorm Few Clouds 3500ft
Few Clouds 4000ft
Broken Clouds 10000ft
1008 Temporary: Wind 50º 10kt. Gust 20KT. Visibility 1500. Light Thunderstorm Rain . VIDP 212200Z 31010G20KT 3000 TS FEW035 FEW040CB BKN100 25/13 Q1008 TEMPO 05010G20KT 1500 -TSRA
IFR 26°C / 8°C 320º 10kt Gust 20kt 3200m Thunderstorm Few Clouds 3500ft
Few Clouds 4000ft
Broken Clouds 10000ft
1008 Temporary: Wind 320º 10kt. Gust 20KT. Visibility 2000. Light Thunderstorm Rain . VIDP 212130Z 32010G20KT 3200 TS FEW035 FEW040CB BKN100 26/08 Q1008 TEMPO 32010G20KT 2000 -TSRA
IFR 28°C / 9°C 320º 6kt Gust 16kt 3200m Haze Few Clouds 3500ft
Few Clouds 4000ft
Scattered Clouds 10000ft
1007 Temporary: Visibility 3000. Light Thunderstorm Rain . VIDP 212100Z 32006G16KT 3200 HZ FEW035 FEW040CB SCT100 28/09 Q1007 TEMPO 3000 -TSRA
IFR 29°C / 8°C 320º 10kt 3200m Haze Few Clouds 3500ft
Few Clouds 4000ft
Scattered Clouds 10000ft
1007 No Significant change VIDP 212030Z 32010KT 3200 HZ FEW035 FEW040CB SCT100 29/08 Q1007 NOSIG
IFR 30°C / 10°C 320º 4kt 3500m Haze Few Clouds 10000ft 1007 No Significant change VIDP 212000Z 32004KT 3500 HZ FEW100 30/10 Q1007 NOSIG
IFR 30°C / 10°C 290º 7kt 3500m Haze Clear 1007 No Significant change VIDP 211930Z 29007KT 3500 HZ NSC 30/10 Q1007 NOSIG
IFR 30°C / 10°C 300º 3kt 3500m Haze Clear 1007 No Significant change VIDP 211900Z 30003KT 3500 HZ NSC 30/10 Q1007 NOSIG
IFR 31°C / 10°C 2kt 3600m Haze Clear 1007 No Significant change VIDP 211830Z VRB02KT 3600 HZ NSC 31/10 Q1007 NOSIG
IFR 31°C / 10°C 330º 5kt 4000m Haze Clear 1007 No Significant change VIDP 211800Z 33005KT 4000 HZ NSC 31/10 Q1007 NOSIG
IFR 31°C / 10°C 330º 5kt 4000m Haze Few Clouds 10000ft 1007 No Significant change VIDP 211730Z 33005KT 4000 HZ FEW100 31/10 Q1007 NOSIG
IFR 31°C / 10°C 320º 3kt 4000m Haze Few Clouds 10000ft 1007 No Significant change VIDP 211700Z 32003KT 4000 HZ FEW100 31/10 Q1007 NOSIG
IFR 31°C / 10°C 320º 4kt 4000m Haze Few Clouds 10000ft 1007 No Significant change VIDP 211630Z 32004KT 4000 HZ FEW100 31/10 Q1007 NOSIG
IFR 31°C / 10°C 320º 3kt 4000m Haze Few Clouds 10000ft 1006 No Significant change VIDP 211600Z 32003KT 4000 HZ FEW100 31/10 Q1006 NOSIG
IFR 32°C / 10°C 330º 4kt 4000m Haze Few Clouds 10000ft 1006 No Significant change VIDP 211530Z 33004KT 4000 HZ FEW100 32/10 Q1006 NOSIG
IFR 33°C / 10°C 310º 4kt 4000m Haze Few Clouds 10000ft 1006 No Significant change VIDP 211500Z 31004KT 4000 HZ FEW100 33/10 Q1006 NOSIG
IFR 33°C / 9°C 320º 4kt 4500m Haze Few Clouds 10000ft 1006 No Significant change VIDP 211430Z 32004KT 4500 HZ FEW100 33/09 Q1006 NOSIG
IFR 34°C / 9°C 300º 4kt 4500m Haze Few Clouds 10000ft 1006 No Significant change VIDP 211400Z 30004KT 4500 HZ FEW100 34/09 Q1006 NOSIG
MVFR 35°C / 9°C 280º 7kt 5000m Haze Few Clouds 10000ft 1005 No Significant change VIDP 211330Z 28007KT 5000 HZ FEW100 35/09 Q1005 NOSIG
MVFR 36°C / 9°C 280º 6kt 5000m Haze Few Clouds 10000ft 1005 No Significant change VIDP 211300Z 28006KT 5000 HZ FEW100 36/09 Q1005 NOSIG
MVFR 36°C / 9°C 280º 7kt 5000m Haze Few Clouds 10000ft 1005 No Significant change VIDP 211230Z 28007KT 5000 HZ FEW100 36/09 Q1005 NOSIG
MVFR 36°C / 9°C 280º 6kt 5000m Haze Few Clouds 10000ft 1005 No Significant change VIDP 211200Z 28006KT 5000 HZ FEW100 36/09 Q1005 NOSIG
MVFR 36°C / 9°C 290º 9kt 5000m Haze Few Clouds 3500ft
Scattered Clouds 10000ft
1005 No Significant change VIDP 211130Z 29009KT 5000 HZ FEW035 SCT100 36/09 Q1005 NOSIG

IFR

25°C / 13°C

[Περισσότερο]
Άνεμος 330º 7kt
Ορατότητα 3000m
Καιρός Haze
Νέφη Few Clouds 3500ft
Few Clouds 4000ft
Broken Clouds 10000ft
Πίεση 1008
Αλλαγή No Significant change
Ανεπεξέργαστο VIDP 212300Z 33007KT 3000 HZ FEW035 FEW040CB BKN100 25/13 Q1008 NOSIG

IFR

25°C / 13°C

[Περισσότερο]
Άνεμος 310º 8kt
Ορατότητα 3000m
Καιρός Thunderstorm
Νέφη Few Clouds 3500ft
Few Clouds 4000ft
Scattered Clouds 10000ft
Πίεση 1008
Αλλαγή No Significant change
Ανεπεξέργαστο VIDP 212230Z 31008KT 3000 TS FEW035 FEW040CB SCT100 25/13 Q1008 NOSIG

IFR

25°C / 13°C

[Περισσότερο]
Άνεμος 310º 10kt Gust 20kt
Ορατότητα 3000m
Καιρός Thunderstorm
Νέφη Few Clouds 3500ft
Few Clouds 4000ft
Broken Clouds 10000ft
Πίεση 1008
Αλλαγή Temporary: Wind 50º 10kt. Gust 20KT. Visibility 1500. Light Thunderstorm Rain .
Ανεπεξέργαστο VIDP 212200Z 31010G20KT 3000 TS FEW035 FEW040CB BKN100 25/13 Q1008 TEMPO 05010G20KT 1500 -TSRA

IFR

26°C / 8°C

[Περισσότερο]
Άνεμος 320º 10kt Gust 20kt
Ορατότητα 3200m
Καιρός Thunderstorm
Νέφη Few Clouds 3500ft
Few Clouds 4000ft
Broken Clouds 10000ft
Πίεση 1008
Αλλαγή Temporary: Wind 320º 10kt. Gust 20KT. Visibility 2000. Light Thunderstorm Rain .
Ανεπεξέργαστο VIDP 212130Z 32010G20KT 3200 TS FEW035 FEW040CB BKN100 26/08 Q1008 TEMPO 32010G20KT 2000 -TSRA

IFR

28°C / 9°C

[Περισσότερο]
Άνεμος 320º 6kt Gust 16kt
Ορατότητα 3200m
Καιρός Haze
Νέφη Few Clouds 3500ft
Few Clouds 4000ft
Scattered Clouds 10000ft
Πίεση 1007
Αλλαγή Temporary: Visibility 3000. Light Thunderstorm Rain .
Ανεπεξέργαστο VIDP 212100Z 32006G16KT 3200 HZ FEW035 FEW040CB SCT100 28/09 Q1007 TEMPO 3000 -TSRA

IFR

29°C / 8°C

[Περισσότερο]
Άνεμος 320º 10kt
Ορατότητα 3200m
Καιρός Haze
Νέφη Few Clouds 3500ft
Few Clouds 4000ft
Scattered Clouds 10000ft
Πίεση 1007
Αλλαγή No Significant change
Ανεπεξέργαστο VIDP 212030Z 32010KT 3200 HZ FEW035 FEW040CB SCT100 29/08 Q1007 NOSIG

IFR

30°C / 10°C

[Περισσότερο]
Άνεμος 320º 4kt
Ορατότητα 3500m
Καιρός Haze
Νέφη Few Clouds 10000ft
Πίεση 1007
Αλλαγή No Significant change
Ανεπεξέργαστο VIDP 212000Z 32004KT 3500 HZ FEW100 30/10 Q1007 NOSIG

IFR

30°C / 10°C

[Περισσότερο]
Άνεμος 290º 7kt
Ορατότητα 3500m
Καιρός Haze
Νέφη Clear
Πίεση 1007
Αλλαγή No Significant change
Ανεπεξέργαστο VIDP 211930Z 29007KT 3500 HZ NSC 30/10 Q1007 NOSIG

IFR

30°C / 10°C

[Περισσότερο]
Άνεμος 300º 3kt
Ορατότητα 3500m
Καιρός Haze
Νέφη Clear
Πίεση 1007
Αλλαγή No Significant change
Ανεπεξέργαστο VIDP 211900Z 30003KT 3500 HZ NSC 30/10 Q1007 NOSIG

IFR

31°C / 10°C

[Περισσότερο]
Άνεμος 2kt
Ορατότητα 3600m
Καιρός Haze
Νέφη Clear
Πίεση 1007
Αλλαγή No Significant change
Ανεπεξέργαστο VIDP 211830Z VRB02KT 3600 HZ NSC 31/10 Q1007 NOSIG

IFR

31°C / 10°C

[Περισσότερο]
Άνεμος 330º 5kt
Ορατότητα 4000m
Καιρός Haze
Νέφη Clear
Πίεση 1007
Αλλαγή No Significant change
Ανεπεξέργαστο VIDP 211800Z 33005KT 4000 HZ NSC 31/10 Q1007 NOSIG

IFR

31°C / 10°C

[Περισσότερο]
Άνεμος 330º 5kt
Ορατότητα 4000m
Καιρός Haze
Νέφη Few Clouds 10000ft
Πίεση 1007
Αλλαγή No Significant change
Ανεπεξέργαστο VIDP 211730Z 33005KT 4000 HZ FEW100 31/10 Q1007 NOSIG

IFR

31°C / 10°C

[Περισσότερο]
Άνεμος 320º 3kt
Ορατότητα 4000m
Καιρός Haze
Νέφη Few Clouds 10000ft
Πίεση 1007
Αλλαγή No Significant change
Ανεπεξέργαστο VIDP 211700Z 32003KT 4000 HZ FEW100 31/10 Q1007 NOSIG

IFR

31°C / 10°C

[Περισσότερο]
Άνεμος 320º 4kt
Ορατότητα 4000m
Καιρός Haze
Νέφη Few Clouds 10000ft
Πίεση 1007
Αλλαγή No Significant change
Ανεπεξέργαστο VIDP 211630Z 32004KT 4000 HZ FEW100 31/10 Q1007 NOSIG

IFR

31°C / 10°C

[Περισσότερο]
Άνεμος 320º 3kt
Ορατότητα 4000m
Καιρός Haze
Νέφη Few Clouds 10000ft
Πίεση 1006
Αλλαγή No Significant change
Ανεπεξέργαστο VIDP 211600Z 32003KT 4000 HZ FEW100 31/10 Q1006 NOSIG

IFR

32°C / 10°C

[Περισσότερο]
Άνεμος 330º 4kt
Ορατότητα 4000m
Καιρός Haze
Νέφη Few Clouds 10000ft
Πίεση 1006
Αλλαγή No Significant change
Ανεπεξέργαστο VIDP 211530Z 33004KT 4000 HZ FEW100 32/10 Q1006 NOSIG

IFR

33°C / 10°C

[Περισσότερο]
Άνεμος 310º 4kt
Ορατότητα 4000m
Καιρός Haze
Νέφη Few Clouds 10000ft
Πίεση 1006
Αλλαγή No Significant change
Ανεπεξέργαστο VIDP 211500Z 31004KT 4000 HZ FEW100 33/10 Q1006 NOSIG

IFR

33°C / 9°C

[Περισσότερο]
Άνεμος 320º 4kt
Ορατότητα 4500m
Καιρός Haze
Νέφη Few Clouds 10000ft
Πίεση 1006
Αλλαγή No Significant change
Ανεπεξέργαστο VIDP 211430Z 32004KT 4500 HZ FEW100 33/09 Q1006 NOSIG

IFR

34°C / 9°C

[Περισσότερο]
Άνεμος 300º 4kt
Ορατότητα 4500m
Καιρός Haze
Νέφη Few Clouds 10000ft
Πίεση 1006
Αλλαγή No Significant change
Ανεπεξέργαστο VIDP 211400Z 30004KT 4500 HZ FEW100 34/09 Q1006 NOSIG

MVFR

35°C / 9°C

[Περισσότερο]
Άνεμος 280º 7kt
Ορατότητα 5000m
Καιρός Haze
Νέφη Few Clouds 10000ft
Πίεση 1005
Αλλαγή No Significant change
Ανεπεξέργαστο VIDP 211330Z 28007KT 5000 HZ FEW100 35/09 Q1005 NOSIG

MVFR

36°C / 9°C

[Περισσότερο]
Άνεμος 280º 6kt
Ορατότητα 5000m
Καιρός Haze
Νέφη Few Clouds 10000ft
Πίεση 1005
Αλλαγή No Significant change
Ανεπεξέργαστο VIDP 211300Z 28006KT 5000 HZ FEW100 36/09 Q1005 NOSIG

MVFR

36°C / 9°C

[Περισσότερο]
Άνεμος 280º 7kt
Ορατότητα 5000m
Καιρός Haze
Νέφη Few Clouds 10000ft
Πίεση 1005
Αλλαγή No Significant change
Ανεπεξέργαστο VIDP 211230Z 28007KT 5000 HZ FEW100 36/09 Q1005 NOSIG

MVFR

36°C / 9°C

[Περισσότερο]
Άνεμος 280º 6kt
Ορατότητα 5000m
Καιρός Haze
Νέφη Few Clouds 10000ft
Πίεση 1005
Αλλαγή No Significant change
Ανεπεξέργαστο VIDP 211200Z 28006KT 5000 HZ FEW100 36/09 Q1005 NOSIG

MVFR

36°C / 9°C

[Περισσότερο]
Άνεμος 290º 9kt
Ορατότητα 5000m
Καιρός Haze
Νέφη Few Clouds 3500ft
Scattered Clouds 10000ft
Πίεση 1005
Αλλαγή No Significant change
Ανεπεξέργαστο VIDP 211130Z 29009KT 5000 HZ FEW035 SCT100 36/09 Q1005 NOSIG

TAF για Νέο Δελχί (VIDP)

From till


From till Wind 290º 7kt. Visibility 3500m. Haze . Few Clouds 10000ft.
Becoming from till
Becoming from till

Ανεπεξέργαστο: TAF VIDP 212000Z 2121/2206 29007KT 3500 HZ FEW100 BECMG 2200/2202 2200 HZ BECMG 2204/2206 27005KT 4000 HZ

Ραντάρ για Νέο Δελχί

Ψιλοβρέχει
Ελαφριά
Μέτρια
Έντονη
Πολύ έντονες
Χαλάζι

Ο δείκτης θέσης τοποθετείται στο Νέο Δελχί. Οι πορτοκαλί σταυροί υποδεικνύουν κεραυνούς. Δεδομένα που παρέχονται από nowcast.de (διαθέσιμα στις ΗΠΑ, την Ευρώπη, την Αυστραλία). Το ψιλόβροχο ή το ελαφρύ χιόνι μπορεί να είναι αόρατο για το ραντάρ. Η ένταση της βροχόπτωσης είναι χρωματικά κωδικοποιημένη και κυμαίνεται από τυρκουάζ έως κόκκινο.

Τρέχουσες εικόνες δορυφόρου και βροχής για Νέο Δελχί, Ινδία

Η ένδειξη τοποθεσίας τοποθετείται στο Νέο Δελχί. [Περισσότερο]

Οι δορυφορικές εικόνες σε πραγματικό χρόνο συνδυάζουν ορατό φως κατά τη διάρκεια της ημέρας με υπέρυθρη ακτινοβολία κατά τη διάρκεια της νύχτας. Κατά τη διάρκεια της νύχτας, η εικόνα δεν είναι σκοτεινή μιας και η υπέρυθρη ακτινοβολία μπορεί να εντοπίσει τις διαφορές στη θερμοκρασία. Δυστυχώς, είναι δύσκολο να ξεχωρίσουν οι χαμηλές νεφώσεις και η ομίχλη από τις θερμοκρασίες εδάφους και έτσι μπορεί να είναι σχετικά αόρατα κατά τη διάρκεια της νύχτας. Οι εικόνες από τον δορυφόρο Meteosat για την Ευρώπη ενημερώνονται σε πραγματικό χρόνο κάθε 5 λεπτά. Οι εικόνες από τους δορυφόρους GOES-16/GOES-17 (Βόρεια & Λατινική Αμερική) και Himawari (Ασία) ενημερώνονται κάθε 10 λεπτά.

Η βροχόπτωση εκτιμάται από ραντάρ και δορυφόρους. Οι εκτιμήσεις βροχόπτωσης από τους δορυφόρους είναι λιγότερο ακριβείς τη νύχτα απ' ό,τι κατά τη διάρκεια της ημέρας.

© 2024 meteoblue, NOAA Satellites GOES-16 and EUMETSAT. Δεδομένα αστραπών παρεχόμενα από nowcast.

Επιστροφή στην κορυφή
×
Γεια σου,
φαίνεται ότι χρησιμοποιείς ένα πρόγραμμα αποκλεισμού διαφημίσεων.

Η διαφήμιση είναι απαραίτητη για τη διατήρηση του δωρεάν ιστότοπού μας με μοναδική λεπτομέρεια και ακρίβεια.

Παρακαλούμε καταχωρήστε το www.meteoblue.com στη λευκή λίστα του ad blocker σας ή σκεφτείτε να αγοράσετε ένα από τα προϊόντα μας:

Έχετε ήδη συνδρομή;
Τότε παρακαλούμε σύνδεση.